Today

Time Wind Dr Wind Spd
mph
Wind Gust
mph
Hum In
%
Humid
%
TempI
F
Temp
F
Raw Bar
in
Tot Rain
in
UV Solar
W/sqm
DailyRain
in
HourRain
in
24HrRain
in
RainRate
in
09/06/26 12:01:35 AM 29 0.0 0.0 36 37 74.8 73.2 29.911 7.41 0.0 0 0.00 0.00 0.00 0.00
09/06/26 12:02:27 AM 32 0.0 0.0 36 37 74.8 73.2 29.909 7.41 0.0 0 0.00 0.00 0.00 0.00
09/06/26 12:03:36 AM 31 0.0 0.0 36 36 74.8 73.1 29.910 7.41 0.0 0 0.00 0.00 0.00 0.00
09/06/26 12:04:25 AM 31 0.0 0.0 36 36 74.8 73.1 29.912 7.41 0.0 0 0.00 0.00 0.00 0.00
09/06/26 12:05:20 AM 25 0.0 0.0 36 36 74.7 73.1 29.912 7.41 0.0 0 0.00 0.00 0.00 0.00
09/06/26 12:06:29 AM 32 0.0 0.0 36 36 74.7 73.1 29.911 7.41 0.0 0 0.00 0.00 0.00 0.00
09/06/26 12:07:21 AM 28 0.0 0.0 36 36 74.8 73.0 29.910 7.41 0.0 0 0.00 0.00 0.00 0.00
09/06/26 12:08:30 AM 31 0.0 0.0 36 37 74.7 73.0 29.912 7.41 0.0 0 0.00 0.00 0.00 0.00
09/06/26 12:09:22 AM 32 0.0 0.0 36 37 74.7 73.0 29.910 7.41 0.0 0 0.00 0.00 0.00 0.00
09/06/26 12:10:35 AM 31 0.0 0.0 36 37 74.7 73.0 29.910 7.41 0.0 0 0.00 0.00 0.00 0.00
09/06/26 12:11:26 AM 26 0.0 0.0 37 37 74.7 73.0 29.911 7.41 0.0 0 0.00 0.00 0.00 0.00
09/06/26 12:12:18 AM 30 0.0 0.0 37 36 74.7 72.9 29.912 7.41 0.0 0 0.00 0.00 0.00 0.00
09/06/26 12:13:31 AM 32 0.0 0.0 37 37 74.7 72.9 29.911 7.41 0.0 0 0.00 0.00 0.00 0.00
09/06/26 12:14:19 AM 28 0.0 0.0 37 37 74.7 72.9 29.911 7.41 0.0 0 0.00 0.00 0.00 0.00
09/06/26 12:15:32 AM 34 0.0 0.0 37 37 74.7 72.9 29.911 7.41 0.0 0 0.00 0.00 0.00 0.00
09/06/26 12:16:23 AM 29 0.0 0.0 37 37 74.7 72.8 29.913 7.41 0.0 0 0.00 0.00 0.00 0.00
09/06/26 12:17:36 AM 32 0.0 0.0 37 37 74.7 72.8 29.911 7.41 0.0 0 0.00 0.00 0.00 0.00
09/06/26 12:18:28 AM 32 0.0 0.0 37 36 74.7 72.7 29.913 7.41 0.0 0 0.00 0.00 0.00 0.00
09/06/26 12:19:34 AM 30 0.0 0.0 37 37 74.7 72.7 29.912 7.41 0.0 0 0.00 0.00 0.00 0.00
09/06/26 12:20:26 AM 31 0.0 0.0 37 37 74.7 72.7 29.911 7.41 0.0 0 0.00 0.00 0.00 0.00
09/06/26 12:21:17 AM 32 0.0 0.0 37 37 74.6 72.7 29.913 7.41 0.0 0 0.00 0.00 0.00 0.00
09/06/26 12:22:30 AM 31 0.0 0.0 37 37 74.7 72.6 29.914 7.41 0.0 0 0.00 0.00 0.00 0.00
09/06/26 12:23:22 AM 30 0.0 0.0 37 36 74.7 72.6 29.914 7.41 0.0 0 0.00 0.00 0.00 0.00
09/06/26 12:24:31 AM 32 0.0 0.0 37 36 74.6 72.6 29.913 7.41 0.0 0 0.00 0.00 0.00 0.00
09/06/26 12:25:26 AM 28 0.0 0.0 37 36 74.7 72.6 29.911 7.41 0.0 0 0.00 0.00 0.00 0.00
09/06/26 12:26:36 AM 30 0.0 0.0 37 37 74.6 72.6 29.913 7.41 0.0 0 0.00 0.00 0.00 0.00
09/06/26 12:27:27 AM 34 0.0 0.0 37 37 74.6 72.6 29.914 7.41 0.0 0 0.00 0.00 0.00 0.00
09/06/26 12:28:19 AM 30 0.0 0.0 37 37 74.6 72.6 29.914 7.41 0.0 0 0.00 0.00 0.00 0.00
09/06/26 12:29:31 AM 32 0.0 0.0 37 37 74.6 72.5 29.913 7.41 0.0 0 0.00 0.00 0.00 0.00
09/06/26 12:30:20 AM 31 0.0 0.0 37 37 74.6 72.5 29.913 7.41 0.0 0 0.00 0.00 0.00 0.00
09/06/26 12:31:30 AM 32 0.0 0.0 37 37 74.6 72.5 29.916 7.41 0.0 0 0.00 0.00 0.00 0.00
09/06/26 12:32:24 AM 31 0.0 0.0 37 37 74.6 72.5 29.915 7.41 0.0 0 0.00 0.00 0.00 0.00
09/06/26 12:33:37 AM 29 0.0 0.0 37 38 74.6 72.5 29.915 7.41 0.0 0 0.00 0.00 0.00 0.00
09/06/26 12:34:28 AM 26 0.0 0.0 37 38 74.6 72.5 29.916 7.41 0.0 0 0.00 0.00 0.00 0.00
09/06/26 12:35:35 AM 30 0.0 0.0 37 38 74.6 72.5 29.914 7.41 0.0 0 0.00 0.00 0.00 0.00
09/06/26 12:36:27 AM 32 0.0 0.0 37 37 74.6 72.5 29.914 7.41 0.0 0 0.00 0.00 0.00 0.00
09/06/26 12:37:21 AM 29 0.0 0.0 37 37 74.6 72.5 29.914 7.41 0.0 0 0.00 0.00 0.00 0.00
09/06/26 12:38:34 AM 26 0.0 0.0 37 38 74.6 72.4 29.917 7.41 0.0 0 0.00 0.00 0.00 0.00
09/06/26 12:39:26 AM 34 0.0 0.0 37 38 74.6 72.5 29.913 7.41 0.0 0 0.00 0.00 0.00 0.00
09/06/26 12:40:17 AM 29 0.0 0.0 37 38 74.6 72.4 29.917 7.41 0.0 0 0.00 0.00 0.00 0.00
09/06/26 12:41:24 AM 26 0.0 0.0 37 38 74.6 72.4 29.917 7.41 0.0 0 0.00 0.00 0.00 0.00
09/06/26 12:42:16 AM 32 0.0 0.0 37 38 74.6 72.4 29.915 7.41 0.0 0 0.00 0.00 0.00 0.00
09/06/26 12:43:28 AM 30 0.0 0.0 37 38 74.6 72.3 29.917 7.41 0.0 0 0.00 0.00 0.00 0.00
09/06/26 12:44:20 AM 31 0.0 0.0 37 38 74.6 72.3 29.916 7.41 0.0 0 0.00 0.00 0.00 0.00
09/06/26 12:45:36 AM 31 0.0 0.0 37 38 74.6 72.2 29.918 7.41 0.0 0 0.00 0.00 0.00 0.00
09/06/26 12:46:21 AM 31 0.0 0.0 37 38 74.6 72.2 29.917 7.41 0.0 0 0.00 0.00 0.00 0.00
09/06/26 12:47:34 AM 28 0.0 0.0 37 38 74.6 72.2 29.917 7.41 0.0 0 0.00 0.00 0.00 0.00
09/06/26 12:48:28 AM 31 0.0 0.0 37 38 74.6 72.1 29.917 7.41 0.0 0 0.00 0.00 0.00 0.00
09/06/26 12:49:17 AM 30 0.0 0.0 37 38 74.6 72.1 29.918 7.41 0.0 0 0.00 0.00 0.00 0.00
09/06/26 12:50:30 AM 30 0.0 0.0 37 38 74.6 72.1 29.920 7.41 0.0 0 0.00 0.00 0.00 0.00
09/06/26 12:51:21 AM 28 0.0 0.0 37 38 74.6 72.1 29.917 7.41 0.0 0 0.00 0.00 0.00 0.00
09/06/26 12:52:34 AM 31 0.0 0.0 37 38 74.5 72.1 29.920 7.41 0.0 0 0.00 0.00 0.00 0.00
09/06/26 12:53:23 AM 26 0.0 0.0 37 38 74.6 72.0 29.920 7.41 0.0 0 0.00 0.00 0.00 0.00
09/06/26 12:54:35 AM 30 0.0 0.0 37 38 74.6 72.0 29.921 7.41 0.0 0 0.00 0.00 0.00 0.00
09/06/26 12:55:27 AM 32 0.0 0.0 37 38 74.5 72.0 29.918 7.41 0.0 0 0.00 0.00 0.00 0.00
09/06/26 12:56:19 AM 29 0.0 0.0 37 38 74.5 72.0 29.916 7.41 0.0 0 0.00 0.00 0.00 0.00
09/06/26 12:57:28 AM 30 0.0 0.0 37 38 74.6 72.0 29.917 7.41 0.0 0 0.00 0.00 0.00 0.00
09/06/26 12:58:20 AM 30 0.0 0.0 37 38 74.5 72.0 29.916 7.41 0.0 0 0.00 0.00 0.00 0.00
09/06/26 12:59:30 AM 32 0.0 0.0 37 38 74.5 72.0 29.914 7.41 0.0 0 0.00 0.00 0.00 0.00
09/06/26 1:00:24 AM 28 0.0 0.0 37 39 74.5 72.0 29.915 7.41 0.0 0 0.00 0.00 0.00 0.00
09/06/26 1:01:34 AM 29 0.0 0.0 37 40 74.5 72.0 29.914 7.41 0.0 0 0.00 0.00 0.00 0.00
09/06/26 1:02:23 AM 29 0.0 0.0 37 40 74.5 72.0 29.912 7.41 0.0 0 0.00 0.00 0.00 0.00
09/06/26 1:03:35 AM 32 0.0 0.0 37 40 74.5 71.9 29.913 7.41 0.0 0 0.00 0.00 0.00 0.00
09/06/26 1:04:27 AM 28 0.0 0.0 37 40 74.5 71.9 29.911 7.41 0.0 0 0.00 0.00 0.00 0.00
09/06/26 1:05:18 AM 34 0.0 0.0 37 40 74.5 71.9 29.911 7.41 0.0 0 0.00 0.00 0.00 0.00
09/06/26 1:06:31 AM 29 0.0 0.0 37 40 74.5 71.9 29.911 7.41 0.0 0 0.00 0.00 0.00 0.00
09/06/26 1:07:20 AM 30 0.0 0.0 37 40 74.5 71.9 29.910 7.41 0.0 0 0.00 0.00 0.00 0.00
09/06/26 1:08:33 AM 26 0.0 0.0 37 40 74.5 71.9 29.908 7.41 0.0 0 0.00 0.00 0.00 0.00
09/06/26 1:09:24 AM 32 0.0 0.0 37 40 74.5 71.9 29.907 7.41 0.0 0 0.00 0.00 0.00 0.00
09/06/26 1:10:37 AM 31 0.0 0.0 37 40 74.5 71.8 29.908 7.41 0.0 0 0.00 0.00 0.00 0.00
09/06/26 1:11:28 AM 32 0.0 0.0 37 39 74.5 71.7 29.911 7.41 0.0 0 0.00 0.00 0.00 0.00
09/06/26 1:12:20 AM 28 0.0 0.0 37 40 74.5 71.8 29.908 7.41 0.0 0 0.00 0.00 0.00 0.00
09/06/26 1:13:30 AM 32 0.0 0.0 37 39 74.5 71.7 29.911 7.41 0.0 0 0.00 0.00 0.00 0.00
09/06/26 1:14:21 AM 28 0.0 0.0 37 39 74.4 71.7 29.908 7.41 0.0 0 0.00 0.00 0.00 0.00
09/06/26 1:15:58 AM 28 0.0 0.0 37 39 74.5 71.7 29.911 7.41 0.0 0 0.00 0.00 0.00 0.00
09/06/26 1:16:29 AM 31 0.0 0.0 37 39 74.4 71.6 29.912 7.41 0.0 0 0.00 0.00 0.00 0.00
09/06/26 1:17:23 AM 28 0.0 0.0 37 39 74.5 71.6 29.914 7.41 0.0 0 0.00 0.00 0.00 0.00
09/06/26 1:18:30 AM 31 0.0 0.0 37 40 74.4 71.6 29.915 7.41 0.0 0 0.00 0.00 0.00 0.00
09/06/26 1:19:25 AM 32 0.0 0.0 37 40 74.4 71.6 29.917 7.41 0.0 0 0.00 0.00 0.00 0.00
09/06/26 1:20:34 AM 32 0.0 0.0 37 41 74.5 71.6 29.914 7.41 0.0 0 0.00 0.00 0.00 0.00
09/06/26 1:21:29 AM 28 0.0 0.0 37 39 74.5 71.6 29.916 7.41 0.0 0 0.00 0.00 0.00 0.00
09/06/26 1:22:21 AM 26 0.0 0.0 37 39 74.4 71.6 29.917 7.41 0.0 0 0.00 0.00 0.00 0.00
09/06/26 1:23:33 AM 28 0.0 0.0 37 38 74.4 71.6 29.916 7.41 0.0 0 0.00 0.00 0.00 0.00
09/06/26 1:24:22 AM 30 0.0 0.0 37 39 74.4 71.5 29.915 7.41 0.0 0 0.00 0.00 0.00 0.00
09/06/26 1:25:32 AM 28 0.0 0.0 37 39 74.4 71.5 29.915 7.41 0.0 0 0.00 0.00 0.00 0.00
09/06/26 1:26:23 AM 30 0.0 0.0 37 39 74.4 71.5 29.914 7.41 0.0 0 0.00 0.00 0.00 0.00
09/06/26 1:27:36 AM 32 0.0 0.0 37 40 74.4 71.5 29.917 7.41 0.0 0 0.00 0.00 0.00 0.00
09/06/26 1:28:27 AM 30 0.0 0.0 37 39 74.4 71.5 29.915 7.41 0.0 0 0.00 0.00 0.00 0.00
09/06/26 1:29:37 AM 34 0.0 0.0 37 39 74.4 71.5 29.915 7.41 0.0 0 0.00 0.00 0.00 0.00
09/06/26 1:30:29 AM 31 0.0 0.0 37 39 74.4 71.5 29.914 7.41 0.0 0 0.00 0.00 0.00 0.00
09/06/26 1:31:20 AM 30 0.0 0.0 37 39 74.4 71.5 29.917 7.41 0.0 0 0.00 0.00 0.00 0.00
09/06/26 1:32:30 AM 32 0.0 0.0 37 38 74.4 71.5 29.915 7.41 0.0 0 0.00 0.00 0.00 0.00
09/06/26 1:33:22 AM 28 0.0 0.0 37 38 74.3 71.5 29.914 7.41 0.0 0 0.00 0.00 0.00 0.00
09/06/26 1:34:31 AM 31 0.0 0.0 37 40 74.4 71.5 29.915 7.41 0.0 0 0.00 0.00 0.00 0.00
09/06/26 1:35:23 AM 32 0.0 0.0 37 40 74.3 71.5 29.915 7.41 0.0 0 0.00 0.00 0.00 0.00
09/06/26 1:36:36 AM 31 0.0 0.0 37 40 74.3 71.5 29.914 7.41 0.0 0 0.00 0.00 0.00 0.00
09/06/26 1:37:28 AM 29 0.0 0.0 37 40 74.4 71.5 29.915 7.41 0.0 0 0.00 0.00 0.00 0.00
09/06/26 1:38:19 AM 26 0.0 0.0 37 39 74.4 71.5 29.914 7.41 0.0 0 0.00 0.00 0.00 0.00
09/06/26 1:39:32 AM 31 0.0 0.0 37 40 74.4 71.5 29.914 7.41 0.0 0 0.00 0.00 0.00 0.00
09/06/26 1:40:21 AM 30 0.0 0.0 37 40 74.3 71.5 29.914 7.41 0.0 0 0.00 0.00 0.00 0.00
09/06/26 1:41:30 AM 32 0.0 0.0 37 39 74.4 71.5 29.916 7.41 0.0 0 0.00 0.00 0.00 0.00
09/06/26 1:42:22 AM 31 0.0 0.0 37 39 74.3 71.5 29.916 7.41 0.0 0 0.00 0.00 0.00 0.00
09/06/26 1:43:35 AM 28 0.0 0.0 37 40 74.3 71.5 29.914 7.41 0.0 0 0.00 0.00 0.00 0.00
09/06/26 1:44:26 AM 32 0.0 0.0 37 41 74.3 71.4 29.914 7.41 0.0 0 0.00 0.00 0.00 0.00
09/06/26 1:45:36 AM 32 0.0 0.0 37 40 74.3 71.4 29.915 7.41 0.0 0 0.00 0.00 0.00 0.00
09/06/26 1:46:28 AM 31 0.0 0.0 37 40 74.3 71.4 29.915 7.41 0.0 0 0.00 0.00 0.00 0.00
09/06/26 1:47:19 AM 28 0.0 0.0 37 40 74.3 71.4 29.915 7.41 0.0 0 0.00 0.00 0.00 0.00
09/06/26 1:48:29 AM 31 0.0 0.0 37 40 74.4 71.3 29.916 7.41 0.0 0 0.00 0.00 0.00 0.00
09/06/26 1:49:21 AM 32 0.0 0.0 37 39 74.3 71.3 29.914 7.41 0.0 0 0.00 0.00 0.00 0.00
09/06/26 1:50:27 AM 32 0.0 0.0 37 39 74.3 71.3 29.914 7.41 0.0 0 0.00 0.00 0.00 0.00
09/06/26 1:51:22 AM 29 0.0 0.0 37 40 74.3 71.3 29.913 7.41 0.0 0 0.00 0.00 0.00 0.00
09/06/26 1:52:32 AM 30 0.0 0.0 37 39 74.3 71.3 29.913 7.41 0.0 0 0.00 0.00 0.00 0.00
09/06/26 1:53:23 AM 30 0.0 0.0 37 39 74.3 71.2 29.912 7.41 0.0 0 0.00 0.00 0.00 0.00
09/06/26 1:54:36 AM 31 0.0 0.0 37 40 74.3 71.2 29.914 7.41 0.0 0 0.00 0.00 0.00 0.00
09/06/26 1:55:28 AM 31 0.0 0.0 37 39 74.3 71.2 29.916 7.41 0.0 0 0.00 0.00 0.00 0.00
09/06/26 1:56:35 AM 31 0.0 0.0 37 38 74.3 71.2 29.915 7.41 0.0 0 0.00 0.00 0.00 0.00
09/06/26 1:57:26 AM 31 0.0 0.0 37 38 74.3 71.2 29.915 7.41 0.0 0 0.00 0.00 0.00 0.00
09/06/26 1:58:18 AM 32 0.0 0.0 37 39 74.3 71.2 29.912 7.41 0.0 0 0.00 0.00 0.00 0.00
09/06/26 1:59:31 AM 31 0.0 0.0 37 39 74.3 71.2 29.912 7.41 0.0 0 0.00 0.00 0.00 0.00
09/06/26 2:00:25 AM 32 0.0 0.0 37 39 74.3 71.2 29.914 7.41 0.0 0 0.00 0.00 0.00 0.00
09/06/26 2:01:32 AM 31 0.0 0.0 37 39 74.3 71.2 29.912 7.41 0.0 0 0.00 0.00 0.00 0.00
09/06/26 2:02:24 AM 32 0.0 0.0 37 39 74.3 71.2 29.913 7.41 0.0 0 0.00 0.00 0.00 0.00
09/06/26 2:03:15 AM 31 0.0 0.0 37 39 74.3 71.2 29.911 7.41 0.0 0 0.00 0.00 0.00 0.00
09/06/26 2:04:28 AM 28 0.0 0.0 37 40 74.3 71.2 29.912 7.41 0.0 0 0.00 0.00 0.00 0.00
09/06/26 2:05:20 AM 28 0.0 0.0 37 40 74.3 71.2 29.911 7.41 0.0 0 0.00 0.00 0.00 0.00
09/06/26 2:06:30 AM 32 0.0 0.0 37 41 74.3 71.2 29.914 7.41 0.0 0 0.00 0.00 0.00 0.00
09/06/26 2:07:21 AM 27 0.0 0.0 37 40 74.3 71.2 29.913 7.41 0.0 0 0.00 0.00 0.00 0.00
09/06/26 2:08:31 AM 30 0.0 0.0 37 41 74.3 71.3 29.910 7.41 0.0 0 0.00 0.00 0.00 0.00
09/06/26 2:09:26 AM 27 0.0 0.0 37 40 74.3 71.2 29.911 7.41 0.0 0 0.00 0.00 0.00 0.00
09/06/26 2:10:35 AM 31 0.0 0.0 37 40 74.3 71.3 29.912 7.41 0.0 0 0.00 0.00 0.00 0.00
09/06/26 2:11:27 AM 32 0.0 0.0 37 40 74.3 71.3 29.911 7.41 0.0 0 0.00 0.00 0.00 0.00
09/06/26 2:12:16 AM 28 0.0 0.0 37 41 74.3 71.3 29.914 7.41 0.0 0 0.00 0.00 0.00 0.00
09/06/26 2:13:28 AM 29 0.0 0.0 37 40 74.2 71.3 29.913 7.41 0.0 0 0.00 0.00 0.00 0.00
09/06/26 2:14:20 AM 32 0.0 0.0 37 40 74.2 71.3 29.916 7.41 0.0 0 0.00 0.00 0.00 0.00
09/06/26 2:15:33 AM 32 0.0 0.0 37 41 74.3 71.3 29.915 7.41 0.0 0 0.00 0.00 0.00 0.00
09/06/26 2:16:25 AM 30 0.0 0.0 37 40 74.3 71.3 29.917 7.41 0.0 0 0.00 0.00 0.00 0.00
09/06/26 2:17:31 AM 31 0.0 0.0 37 41 74.3 71.3 29.916 7.41 0.0 0 0.00 0.00 0.00 0.00
09/06/26 2:18:23 AM 28 0.0 0.0 37 41 74.2 71.3 29.918 7.41 0.0 0 0.00 0.00 0.00 0.00
09/06/26 2:19:18 AM 28 0.0 0.0 37 40 74.3 71.3 29.916 7.41 0.0 0 0.00 0.00 0.00 0.00
09/06/26 2:20:27 AM 32 0.0 0.0 37 40 74.2 71.2 29.917 7.41 0.0 0 0.00 0.00 0.00 0.00
09/06/26 2:21:19 AM 31 0.0 0.0 37 40 74.2 71.2 29.916 7.41 0.0 0 0.00 0.00 0.00 0.00
09/06/26 2:22:26 AM 32 0.0 0.0 37 40 74.2 71.2 29.917 7.41 0.0 0 0.00 0.00 0.00 0.00
09/06/26 2:23:21 AM 31 0.0 0.0 37 40 74.2 71.2 29.918 7.41 0.0 0 0.00 0.00 0.00 0.00
09/06/26 2:24:33 AM 27 0.0 0.0 37 40 74.2 71.2 29.918 7.41 0.0 0 0.00 0.00 0.00 0.00
09/06/26 2:25:22 AM 31 0.0 0.0 37 40 74.2 71.2 29.915 7.41 0.0 0 0.00 0.00 0.00 0.00
09/06/26 2:26:35 AM 35 0.0 0.0 37 40 74.2 71.2 29.918 7.41 0.0 0 0.00 0.00 0.00 0.00
09/06/26 2:27:27 AM 34 0.0 0.0 37 40 74.2 71.2 29.919 7.41 0.0 0 0.00 0.00 0.00 0.00
09/06/26 2:28:36 AM 32 0.0 0.0 37 40 74.2 71.2 29.919 7.41 0.0 0 0.00 0.00 0.00 0.00
09/06/26 2:29:28 AM 34 0.0 0.0 37 39 74.2 71.1 29.917 7.41 0.0 0 0.00 0.00 0.00 0.00
09/06/26 2:30:41 AM 28 0.0 0.0 37 39 74.2 71.1 29.918 7.41 0.0 0 0.00 0.00 0.00 0.00
09/06/26 2:31:32 AM 31 0.0 0.0 37 39 74.2 71.1 29.917 7.41 0.0 0 0.00 0.00 0.00 0.00
09/06/26 2:32:21 AM 32 0.0 0.0 37 39 74.2 71.1 29.915 7.41 0.0 0 0.00 0.00 0.00 0.00
09/06/26 2:33:31 AM 32 0.0 0.0 37 39 74.2 71.1 29.914 7.41 0.0 0 0.00 0.00 0.00 0.00
09/06/26 2:34:23 AM 32 0.0 0.0 37 39 74.2 71.0 29.911 7.41 0.0 0 0.00 0.00 0.00 0.00
09/06/26 2:35:35 AM 26 0.0 0.0 37 39 74.2 71.0 29.911 7.41 0.0 0 0.00 0.00 0.00 0.00
09/06/26 2:36:27 AM 28 0.0 0.0 37 39 74.2 71.0 29.913 7.41 0.0 0 0.00 0.00 0.00 0.00
09/06/26 2:37:19 AM 31 0.0 0.0 37 39 74.2 71.0 29.911 7.41 0.0 0 0.00 0.00 0.00 0.00
09/06/26 2:38:29 AM 31 0.0 0.0 37 39 74.2 71.0 29.911 7.41 0.0 0 0.00 0.00 0.00 0.00
09/06/26 2:39:17 AM 32 0.0 0.0 37 39 74.2 71.0 29.910 7.41 0.0 0 0.00 0.00 0.00 0.00
09/06/26 2:40:30 AM 25 0.0 0.0 37 39 74.2 71.0 29.909 7.41 0.0 0 0.00 0.00 0.00 0.00
09/06/26 2:41:22 AM 30 0.0 0.0 37 39 74.2 71.0 29.908 7.41 0.0 0 0.00 0.00 0.00 0.00
09/06/26 2:42:34 AM 31 0.0 0.0 37 39 74.2 71.0 29.910 7.41 0.0 0 0.00 0.00 0.00 0.00
09/06/26 2:43:26 AM 32 0.0 0.0 37 39 74.2 71.0 29.910 7.41 0.0 0 0.00 0.00 0.00 0.00
09/06/26 2:44:33 AM 31 0.0 0.0 37 39 74.1 71.0 29.907 7.41 0.0 0 0.00 0.00 0.00 0.00
09/06/26 2:45:28 AM 23 0.0 0.0 37 39 74.2 71.0 29.906 7.41 0.0 0 0.00 0.00 0.00 0.00
09/06/26 2:46:16 AM 30 0.0 0.0 37 38 74.1 71.0 29.907 7.41 0.0 0 0.00 0.00 0.00 0.00
09/06/26 2:47:29 AM 29 0.0 0.0 37 38 74.1 71.1 29.907 7.41 0.0 0 0.00 0.00 0.00 0.00
09/06/26 2:48:24 AM 30 0.0 0.0 37 38 74.1 71.1 29.907 7.41 0.0 0 0.00 0.00 0.00 0.00
09/06/26 2:49:30 AM 32 0.0 0.0 37 39 74.2 71.1 29.905 7.41 0.0 0 0.00 0.00 0.00 0.00
09/06/26 2:50:22 AM 30 0.0 0.0 37 38 74.1 71.2 29.904 7.41 0.0 0 0.00 0.00 0.00 0.00
09/06/26 2:51:35 AM 30 0.0 0.0 37 38 74.2 71.2 29.904 7.41 0.0 0 0.00 0.00 0.00 0.00
09/06/26 2:52:27 AM 27 0.0 0.0 37 38 74.1 71.3 29.905 7.41 0.0 0 0.00 0.00 0.00 0.00
09/06/26 2:53:18 AM 34 0.0 0.0 37 39 74.2 71.3 29.900 7.41 0.0 0 0.00 0.00 0.00 0.00
09/06/26 2:54:31 AM 31 0.0 0.0 37 39 74.1 71.4 29.901 7.41 0.0 0 0.00 0.00 0.00 0.00
09/06/26 2:55:20 AM 32 0.0 0.0 37 41 74.2 71.5 29.904 7.41 0.0 0 0.00 0.00 0.00 0.00
09/06/26 2:56:33 AM 31 0.0 0.0 37 40 74.1 71.5 29.900 7.41 0.0 0 0.00 0.00 0.00 0.00
09/06/26 2:57:24 AM 32 0.0 0.0 37 40 74.1 71.5 29.898 7.41 0.0 0 0.00 0.00 0.00 0.00
09/06/26 2:58:37 AM 32 0.0 0.0 37 40 74.1 71.6 29.901 7.41 0.0 0 0.00 0.00 0.00 0.00
09/06/26 2:59:26 AM 28 0.0 0.0 37 40 74.1 71.6 29.902 7.41 0.0 0 0.00 0.00 0.00 0.00
09/06/26 3:00:36 AM 31 0.0 0.0 37 39 74.1 71.6 29.902 7.41 0.0 0 0.00 0.00 0.00 0.00
09/06/26 3:01:27 AM 32 0.0 0.0 37 39 74.1 71.6 29.906 7.41 0.0 0 0.00 0.00 0.00 0.00
09/06/26 3:02:19 AM 31 0.0 0.0 37 39 74.1 71.7 29.906 7.41 0.0 0 0.00 0.00 0.00 0.00
09/06/26 3:03:29 AM 29 0.0 0.0 37 40 74.1 71.7 29.906 7.41 0.0 0 0.00 0.00 0.00 0.00
09/06/26 3:04:24 AM 26 0.0 0.0 37 40 74.1 71.6 29.905 7.41 0.0 0 0.00 0.00 0.00 0.00
09/06/26 3:05:30 AM 28 0.0 0.0 37 40 74.1 71.7 29.905 7.41 0.0 0 0.00 0.00 0.00 0.00
09/06/26 3:06:22 AM 31 0.0 0.0 37 41 74.1 71.7 29.902 7.41 0.0 0 0.00 0.00 0.00 0.00
09/06/26 3:07:35 AM 32 0.0 0.0 37 41 74.1 71.7 29.903 7.41 0.0 0 0.00 0.00 0.00 0.00
09/06/26 3:08:26 AM 29 0.0 0.0 37 41 74.1 71.7 29.904 7.41 0.0 0 0.00 0.00 0.00 0.00
09/06/26 3:09:18 AM 32 0.0 0.0 37 41 74.1 71.7 29.903 7.41 0.0 0 0.00 0.00 0.00 0.00
09/06/26 3:10:31 AM 32 0.0 0.0 37 41 74.1 71.7 29.902 7.41 0.0 0 0.00 0.00 0.00 0.00
09/06/26 3:11:20 AM 32 0.0 0.0 37 40 74.1 71.7 29.902 7.41 0.0 0 0.00 0.00 0.00 0.00
09/06/26 3:12:32 AM 31 0.0 0.0 37 40 74.1 71.6 29.901 7.41 0.0 0 0.00 0.00 0.00 0.00
09/06/26 3:13:24 AM 32 0.0 0.0 37 39 74.1 71.7 29.900 7.41 0.0 0 0.00 0.00 0.00 0.00
09/06/26 3:14:16 AM 28 0.0 0.0 37 39 74.1 71.6 29.901 7.41 0.0 0 0.00 0.00 0.00 0.00
09/06/26 3:15:29 AM 30 0.0 0.0 37 39 74.1 71.6 29.899 7.41 0.0 0 0.00 0.00 0.00 0.00
09/06/26 3:16:35 AM 32 0.0 0.0 37 39 74.1 71.6 29.899 7.41 0.0 0 0.00 0.00 0.00 0.00
09/06/26 3:17:27 AM 32 0.0 0.0 37 39 74.1 71.5 29.900 7.41 0.0 0 0.00 0.00 0.00 0.00
09/06/26 3:18:19 AM 30 0.0 0.0 37 39 74.1 71.5 29.899 7.41 0.0 0 0.00 0.00 0.00 0.00
09/06/26 3:19:32 AM 34 0.0 0.0 37 39 74.1 71.5 29.900 7.41 0.0 0 0.00 0.00 0.00 0.00
09/06/26 3:20:24 AM 28 0.0 0.0 37 39 74.1 71.5 29.900 7.41 0.0 0 0.00 0.00 0.00 0.00
09/06/26 3:21:15 AM 32 0.0 0.0 37 40 74.1 71.5 29.899 7.41 0.0 0 0.00 0.00 0.00 0.00
09/06/26 3:22:25 AM 26 0.0 0.0 37 40 74.1 71.5 29.901 7.41 0.0 0 0.00 0.00 0.00 0.00
09/06/26 3:23:17 AM 32 0.0 0.0 37 40 74.1 71.5 29.899 7.41 0.0 0 0.00 0.00 0.00 0.00
09/06/26 3:24:27 AM 31 0.0 0.0 37 40 74.0 71.4 29.900 7.41 0.0 0 0.00 0.00 0.00 0.00
09/06/26 3:25:18 AM 28 0.0 0.0 37 40 74.0 71.4 29.896 7.41 0.0 0 0.00 0.00 0.00 0.00
09/06/26 3:26:31 AM 31 0.0 0.0 37 40 74.1 71.4 29.898 7.41 0.0 0 0.00 0.00 0.00 0.00
09/06/26 3:27:20 AM 29 0.0 0.0 37 40 74.1 71.4 29.899 7.41 0.0 0 0.00 0.00 0.00 0.00
09/06/26 3:28:33 AM 32 0.0 0.0 37 41 74.1 71.4 29.901 7.41 0.0 0 0.00 0.00 0.00 0.00
09/06/26 3:29:24 AM 32 0.0 0.0 37 41 74.1 71.4 29.901 7.41 0.0 0 0.00 0.00 0.00 0.00
09/06/26 3:30:37 AM 30 0.0 0.0 37 41 74.1 71.4 29.903 7.41 0.0 0 0.00 0.00 0.00 0.00
09/06/26 3:31:29 AM 28 0.0 0.0 37 41 74.0 71.4 29.901 7.41 0.0 0 0.00 0.00 0.00 0.00
09/06/26 3:32:36 AM 34 0.0 0.0 37 42 74.1 71.3 29.902 7.41 0.0 0 0.00 0.00 0.00 0.00
09/06/26 3:33:27 AM 31 0.0 0.0 37 42 74.0 71.3 29.900 7.41 0.0 0 0.00 0.00 0.00 0.00
09/06/26 3:34:19 AM 34 0.0 0.0 37 42 74.1 71.3 29.902 7.41 0.0 0 0.00 0.00 0.00 0.00
09/06/26 3:35:32 AM 32 0.0 0.0 37 41 74.0 71.3 29.901 7.41 0.0 0 0.00 0.00 0.00 0.00
09/06/26 3:36:23 AM 31 0.0 0.0 37 41 74.1 71.3 29.902 7.41 0.0 0 0.00 0.00 0.00 0.00
09/06/26 3:37:30 AM 30 0.0 0.0 37 40 74.1 71.2 29.901 7.41 0.0 0 0.00 0.00 0.00 0.00
09/06/26 3:38:22 AM 32 0.0 0.0 37 40 74.0 71.2 29.902 7.41 0.0 0 0.00 0.00 0.00 0.00
09/06/26 3:39:35 AM 31 0.0 0.0 37 40 74.0 71.2 29.902 7.41 0.0 0 0.00 0.00 0.00 0.00
09/06/26 3:40:27 AM 32 0.0 0.0 37 40 74.0 71.3 29.903 7.41 0.0 0 0.00 0.00 0.00 0.00
09/06/26 3:41:18 AM 29 0.0 0.0 37 40 74.0 71.3 29.904 7.41 0.0 0 0.00 0.00 0.00 0.00
09/06/26 3:42:28 AM 26 0.0 0.0 37 40 74.0 71.3 29.902 7.41 0.0 0 0.00 0.00 0.00 0.00
09/06/26 3:43:17 AM 30 0.0 0.0 37 40 74.1 71.3 29.902 7.41 0.0 0 0.00 0.00 0.00 0.00
09/06/26 3:44:30 AM 32 0.0 0.0 37 41 74.0 71.3 29.901 7.41 0.0 0 0.00 0.00 0.00 0.00
09/06/26 3:45:21 AM 28 0.0 0.0 37 41 74.0 71.3 29.901 7.41 0.0 0 0.00 0.00 0.00 0.00
09/06/26 3:46:34 AM 28 0.0 0.0 37 41 74.0 71.3 29.898 7.41 0.0 0 0.00 0.00 0.00 0.00
09/06/26 3:47:26 AM 25 0.0 0.0 37 41 74.0 71.4 29.898 7.41 0.0 0 0.00 0.00 0.00 0.00
09/06/26 3:48:33 AM 28 0.0 0.0 38 41 74.0 71.4 29.897 7.41 0.0 0 0.00 0.00 0.00 0.00
09/06/26 3:49:25 AM 30 0.0 0.0 38 41 74.1 71.4 29.898 7.41 0.0 0 0.00 0.00 0.00 0.00
09/06/26 3:50:16 AM 34 0.0 0.0 38 41 74.0 71.4 29.896 7.41 0.0 0 0.00 0.00 0.00 0.00
09/06/26 3:51:29 AM 29 0.0 0.0 38 40 74.0 71.4 29.896 7.41 0.0 0 0.00 0.00 0.00 0.00
09/06/26 3:52:21 AM 32 0.0 0.0 38 40 74.0 71.4 29.894 7.41 0.0 0 0.00 0.00 0.00 0.00
09/06/26 3:53:28 AM 26 0.0 0.0 38 40 74.0 71.5 29.892 7.41 0.0 0 0.00 0.00 0.00 0.00
09/06/26 3:54:22 AM 29 0.0 0.0 38 40 74.1 71.5 29.893 7.41 0.0 0 0.00 0.00 0.00 0.00
09/06/26 3:55:35 AM 29 0.0 0.0 38 41 74.0 71.5 29.892 7.41 0.0 0 0.00 0.00 0.00 0.00
09/06/26 3:56:27 AM 32 0.0 0.0 38 41 74.0 71.6 29.891 7.41 0.0 0 0.00 0.00 0.00 0.00
09/06/26 3:57:19 AM 28 0.0 0.0 38 42 74.0 71.6 29.890 7.41 0.0 0 0.00 0.00 0.00 0.00
09/06/26 3:58:31 AM 30 0.0 0.0 38 43 74.0 71.6 29.892 7.41 0.0 0 0.00 0.00 0.00 0.00
09/06/26 3:59:17 AM 31 0.0 0.0 38 43 74.0 71.7 29.891 7.41 0.0 0 0.00 0.00 0.00 0.00
09/06/26 4:00:33 AM 32 0.0 0.0 38 43 74.0 71.7 29.891 7.41 0.0 0 0.00 0.00 0.00 0.00
09/06/26 4:01:22 AM 28 0.0 0.0 38 42 74.0 71.7 29.893 7.41 0.0 0 0.00 0.00 0.00 0.00
09/06/26 4:02:35 AM 34 0.0 0.0 38 43 74.0 71.8 29.893 7.41 0.0 0 0.00 0.00 0.00 0.00
09/06/26 4:03:26 AM 30 0.0 0.0 38 43 74.0 71.8 29.894 7.41 0.0 0 0.00 0.00 0.00 0.00
09/06/26 4:04:33 AM 31 0.0 0.0 38 42 74.0 71.8 29.895 7.41 0.0 0 0.00 0.00 0.00 0.00
09/06/26 4:05:25 AM 32 0.0 0.0 38 42 74.0 71.8 29.895 7.41 0.0 0 0.00 0.00 0.00 0.00
09/06/26 4:06:20 AM 32 0.0 0.0 38 42 74.0 71.9 29.895 7.41 0.0 0 0.00 0.00 0.00 0.00
09/06/26 4:07:33 AM 31 0.0 0.0 38 42 74.0 71.9 29.896 7.41 0.0 0 0.00 0.00 0.00 0.00
09/06/26 4:08:28 AM 35 0.0 0.0 38 42 74.0 71.9 29.895 7.41 0.0 0 0.00 0.00 0.00 0.00
09/06/26 4:09:16 AM 31 0.0 0.0 38 42 74.0 71.9 29.895 7.41 0.0 0 0.00 0.00 0.00 0.00
09/06/26 4:10:26 AM 31 0.0 0.0 38 41 74.0 71.9 29.893 7.41 0.0 0 0.00 0.00 0.00 0.00
09/06/26 4:11:18 AM 30 0.0 0.0 38 42 74.0 72.0 29.896 7.41 0.0 0 0.00 0.00 0.00 0.00
09/06/26 4:12:31 AM 32 0.0 0.0 38 41 74.0 72.0 29.897 7.41 0.0 0 0.00 0.00 0.00 0.00
09/06/26 4:13:23 AM 32 0.0 0.0 38 41 74.0 72.0 29.894 7.41 0.0 0 0.00 0.00 0.00 0.00
09/06/26 4:14:35 AM 34 2.0 3.0 38 41 74.0 72.1 29.897 7.41 0.0 0 0.00 0.00 0.00 0.00
09/06/26 4:15:45 AM 29 2.0 3.0 38 41 73.9 72.1 29.895 7.41 0.0 0 0.00 0.00 0.00 0.00
09/06/26 4:16:16 AM 32 1.0 3.0 38 41 74.0 72.1 29.895 7.41 0.0 0 0.00 0.00 0.00 0.00
09/06/26 4:17:29 AM 32 1.0 3.0 38 42 74.0 72.2 29.894 7.41 0.0 0 0.00 0.00 0.00 0.00
09/06/26 4:18:20 AM 28 0.0 3.0 38 42 74.0 72.3 29.896 7.41 0.0 0 0.00 0.00 0.00 0.00
09/06/26 4:19:33 AM 31 0.0 3.0 38 42 74.0 72.3 29.894 7.41 0.0 0 0.00 0.00 0.00 0.00
09/06/26 4:20:22 AM 32 0.0 3.0 38 42 74.0 72.3 29.893 7.41 0.0 0 0.00 0.00 0.00 0.00
09/06/26 4:21:32 AM 31 0.0 3.0 38 42 74.0 72.3 29.891 7.41 0.0 0 0.00 0.00 0.00 0.00
09/06/26 4:22:23 AM 32 0.0 3.0 38 42 74.0 72.3 29.891 7.41 0.0 0 0.00 0.00 0.00 0.00
09/06/26 4:23:36 AM 28 0.0 3.0 38 42 74.0 72.4 29.890 7.41 0.0 0 0.00 0.00 0.00 0.00
09/06/26 4:24:28 AM 32 0.0 3.0 38 42 74.0 72.4 29.892 7.41 0.0 0 0.00 0.00 0.00 0.00
09/06/26 4:25:20 AM 32 0.0 3.0 38 42 74.0 72.4 29.894 7.41 0.0 0 0.00 0.00 0.00 0.00
09/06/26 4:26:26 AM 32 0.0 3.0 38 42 74.0 72.4 29.893 7.41 0.0 0 0.00 0.00 0.00 0.00
09/06/26 4:27:18 AM 32 0.0 3.0 38 42 74.0 72.4 29.894 7.41 0.0 0 0.00 0.00 0.00 0.00
09/06/26 4:28:31 AM 32 0.0 3.0 38 42 74.0 72.4 29.894 7.41 0.0 0 0.00 0.00 0.00 0.00
09/06/26 4:29:23 AM 32 0.0 3.0 38 42 74.0 72.4 29.895 7.41 0.0 0 0.00 0.00 0.00 0.00
09/06/26 4:30:35 AM 28 0.0 3.0 38 42 74.0 72.4 29.894 7.41 0.0 0 0.00 0.00 0.00 0.00
09/06/26 4:31:21 AM 31 0.0 3.0 38 44 74.0 72.4 29.896 7.41 0.0 0 0.00 0.00 0.00 0.00
09/06/26 4:32:34 AM 32 0.0 3.0 38 44 74.0 72.4 29.897 7.41 0.0 0 0.00 0.00 0.00 0.00
09/06/26 4:33:26 AM 30 0.0 3.0 38 44 74.0 72.4 29.898 7.41 0.0 0 0.00 0.00 0.00 0.00
09/06/26 4:34:21 AM 32 0.0 3.0 38 44 74.0 72.4 29.899 7.41 0.0 0 0.00 0.00 0.00 0.00
09/06/26 4:35:33 AM 31 0.0 3.0 38 44 74.0 72.4 29.902 7.41 0.0 0 0.00 0.00 0.00 0.00
09/06/26 4:36:25 AM 31 0.0 3.0 38 43 74.0 72.4 29.901 7.41 0.0 0 0.00 0.00 0.00 0.00
09/06/26 4:37:35 AM 29 0.0 3.0 38 42 74.0 72.4 29.901 7.41 0.0 0 0.00 0.00 0.00 0.00
09/06/26 4:38:24 AM 26 0.0 3.0 38 42 74.0 72.4 29.900 7.41 0.0 0 0.00 0.00 0.00 0.00
09/06/26 4:39:36 AM 28 0.0 3.0 38 42 74.0 72.4 29.903 7.41 0.0 0 0.00 0.00 0.00 0.00
09/06/26 4:40:28 AM 34 0.0 3.0 38 42 73.9 72.4 29.904 7.41 0.0 0 0.00 0.00 0.00 0.00
09/06/26 4:41:20 AM 30 0.0 3.0 38 42 74.0 72.4 29.906 7.41 0.0 0 0.00 0.00 0.00 0.00
09/06/26 4:42:27 AM 32 0.0 3.0 38 41 74.0 72.4 29.905 7.41 0.0 0 0.00 0.00 0.00 0.00
09/06/26 4:43:18 AM 31 0.0 3.0 38 41 74.0 72.4 29.906 7.41 0.0 0 0.00 0.00 0.00 0.00
09/06/26 4:44:34 AM 32 0.0 3.0 38 42 74.0 72.4 29.905 7.41 0.0 0 0.00 0.00 0.00 0.00
09/06/26 4:45:26 AM 31 0.0 3.0 38 42 74.0 72.4 29.904 7.41 0.0 0 0.00 0.00 0.00 0.00
09/06/26 4:46:18 AM 32 0.0 3.0 38 42 74.0 72.5 29.903 7.41 0.0 0 0.00 0.00 0.00 0.00
09/06/26 4:47:25 AM 23 0.0 3.0 38 42 74.0 72.5 29.905 7.41 0.0 0 0.00 0.00 0.00 0.00
09/06/26 4:48:19 AM 32 0.0 3.0 38 42 74.0 72.5 29.904 7.41 0.0 0 0.00 0.00 0.00 0.00
09/06/26 4:49:29 AM 30 3.0 3.0 38 42 74.0 72.6 29.904 7.41 0.0 0 0.00 0.00 0.00 0.00
09/06/26 4:50:21 AM 28 2.0 3.0 38 42 74.0 72.6 29.903 7.41 0.0 0 0.00 0.00 0.00 0.00
09/06/26 4:51:34 AM 26 3.0 4.0 38 42 74.0 72.7 29.902 7.41 0.0 0 0.00 0.00 0.00 0.00
09/06/26 4:52:25 AM 34 2.0 4.0 38 42 74.0 72.7 29.901 7.41 0.0 0 0.00 0.00 0.00 0.00
09/06/26 4:53:32 AM 28 2.0 4.0 39 42 74.0 72.8 29.900 7.41 0.0 0 0.00 0.00 0.00 0.00
09/06/26 4:54:24 AM 25 3.0 4.0 39 42 73.9 72.8 29.903 7.41 0.0 0 0.00 0.00 0.00 0.00
09/06/26 4:55:37 AM 32 2.0 4.0 39 41 73.9 72.8 29.902 7.41 0.0 0 0.00 0.00 0.00 0.00
09/06/26 4:56:29 AM 31 2.0 4.0 39 41 74.0 72.9 29.903 7.41 0.0 0 0.00 0.00 0.00 0.00
09/06/26 4:57:20 AM 30 3.0 4.0 39 41 73.9 72.9 29.904 7.41 0.0 0 0.00 0.00 0.00 0.00
09/06/26 4:58:27 AM 31 3.0 4.0 39 41 73.9 73.0 29.904 7.41 0.0 0 0.00 0.00 0.00 0.00
09/06/26 4:59:22 AM 24 2.0 4.0 39 41 73.9 73.0 29.904 7.41 0.0 0 0.00 0.00 0.00 0.00
09/06/26 5:00:56 AM 32 2.0 4.0 39 41 73.9 73.1 29.903 7.41 0.0 0 0.00 0.00 0.00 0.00
09/06/26 5:01:26 AM 28 1.0 4.0 39 41 73.9 73.1 29.903 7.41 0.0 0 0.00 0.00 0.00 0.00
09/06/26 5:02:18 AM 28 0.0 4.0 39 41 73.9 73.1 29.901 7.41 0.0 0 0.00 0.00 0.00 0.00
09/06/26 5:03:31 AM 30 0.0 4.0 39 41 73.9 73.2 29.899 7.41 0.0 0 0.00 0.00 0.00 0.00
09/06/26 5:04:17 AM 31 0.0 4.0 39 41 73.9 73.2 29.897 7.41 0.0 0 0.00 0.00 0.00 0.00
09/06/26 5:05:30 AM 28 0.0 4.0 39 41 73.9 73.2 29.895 7.41 0.0 0 0.00 0.00 0.00 0.00
09/06/26 5:06:24 AM 32 0.0 4.0 39 41 73.9 73.2 29.896 7.41 0.0 0 0.00 0.00 0.00 0.00
09/06/26 5:07:34 AM 32 0.0 4.0 39 41 74.0 73.3 29.894 7.41 0.0 0 0.00 0.00 0.00 0.00
09/06/26 5:08:26 AM 32 0.0 4.0 39 41 73.9 73.3 29.891 7.41 0.0 0 0.00 0.00 0.00 0.00
09/06/26 5:09:33 AM 32 0.0 4.0 39 41 73.9 73.3 29.893 7.41 0.0 0 0.00 0.00 0.00 0.00
09/06/26 5:10:27 AM 31 0.0 4.0 39 41 73.9 73.3 29.895 7.41 0.0 0 0.00 0.00 0.00 0.00
09/06/26 5:11:19 AM 32 0.0 4.0 39 41 74.0 73.3 29.892 7.41 0.0 0 0.00 0.00 0.00 0.00
09/06/26 5:12:32 AM 32 0.0 4.0 39 41 73.9 73.3 29.892 7.41 0.0 0 0.00 0.00 0.00 0.00
09/06/26 5:13:24 AM 29 0.0 4.0 39 41 73.9 73.3 29.894 7.41 0.0 0 0.00 0.00 0.00 0.00
09/06/26 5:14:30 AM 30 0.0 4.0 39 41 74.0 73.3 29.894 7.41 0.0 0 0.00 0.00 0.00 0.00
09/06/26 5:15:25 AM 30 0.0 4.0 39 41 73.9 73.3 29.890 7.41 0.0 0 0.00 0.00 0.00 0.00
09/06/26 5:16:35 AM 28 0.0 4.0 39 41 74.0 73.4 29.892 7.41 0.0 0 0.00 0.00 0.00 0.00
09/06/26 5:17:27 AM 29 0.0 4.0 39 41 73.9 73.3 29.890 7.41 0.0 0 0.00 0.00 0.00 0.00
09/06/26 5:18:18 AM 32 0.0 4.0 39 41 74.0 73.3 29.888 7.41 0.0 0 0.00 0.00 0.00 0.00
09/06/26 5:19:31 AM 32 0.0 4.0 39 41 73.9 73.3 29.888 7.41 0.0 0 0.00 0.00 0.00 0.00
09/06/26 5:20:17 AM 32 0.0 4.0 39 41 73.9 73.3 29.890 7.41 0.0 0 0.00 0.00 0.00 0.00
09/06/26 5:21:30 AM 32 0.0 4.0 39 41 73.9 73.3 29.891 7.41 0.0 0 0.00 0.00 0.00 0.00
09/06/26 5:22:22 AM 30 0.0 4.0 39 41 73.9 73.3 29.891 7.41 0.0 0 0.00 0.00 0.00 0.00
09/06/26 5:23:35 AM 32 0.0 4.0 39 41 73.9 73.3 29.889 7.41 0.0 0 0.00 0.00 0.00 0.00
09/06/26 5:24:26 AM 30 0.0 4.0 39 41 73.9 73.3 29.892 7.41 0.0 0 0.00 0.00 0.00 0.00
09/06/26 5:25:33 AM 29 0.0 4.0 39 41 73.9 73.3 29.890 7.41 0.0 0 0.00 0.00 0.00 0.00
09/06/26 5:26:28 AM 31 0.0 4.0 39 41 73.9 73.3 29.892 7.41 0.0 0 0.00 0.00 0.00 0.00
09/06/26 5:27:20 AM 34 0.0 4.0 39 41 73.9 73.3 29.889 7.41 0.0 0 0.00 0.00 0.00 0.00
09/06/26 5:28:30 AM 28 0.0 4.0 39 42 73.9 73.3 29.890 7.41 0.0 0 0.00 0.00 0.00 0.00
09/06/26 5:29:21 AM 27 0.0 4.0 39 42 73.9 73.3 29.889 7.41 0.0 0 0.00 0.00 0.00 0.00
09/06/26 5:30:31 AM 30 0.0 4.0 39 42 73.9 73.3 29.889 7.41 0.0 0 0.00 0.00 0.00 0.00
09/06/26 5:31:23 AM 32 0.0 4.0 39 42 73.9 73.3 29.887 7.41 0.0 0 0.00 0.00 0.00 0.00
09/06/26 5:32:36 AM 26 0.0 4.0 39 41 73.9 73.3 29.888 7.41 0.0 0 0.00 0.00 0.00 0.00
09/06/26 5:33:24 AM 32 0.0 4.0 39 41 73.9 73.2 29.889 7.41 0.0 0 0.00 0.00 0.00 0.00
09/06/26 5:34:16 AM 29 0.0 4.0 39 41 73.9 73.2 29.889 7.41 0.0 0 0.00 0.00 0.00 0.00
09/06/26 5:35:29 AM 28 0.0 4.0 39 41 73.9 73.2 29.890 7.41 0.0 0 0.00 0.00 0.00 0.00
09/06/26 5:36:18 AM 32 0.0 4.0 39 40 73.9 73.2 29.891 7.41 0.0 0 0.00 0.00 0.00 0.00
09/06/26 5:37:28 AM 29 0.0 4.0 39 41 73.8 73.2 29.891 7.41 0.0 0 0.00 0.00 0.00 0.00
09/06/26 5:38:23 AM 31 0.0 4.0 39 41 73.9 73.2 29.891 7.41 0.0 0 0.00 0.00 0.00 0.00
09/06/26 5:39:32 AM 29 0.0 4.0 40 40 73.8 73.1 29.890 7.41 0.0 0 0.00 0.00 0.00 0.00
09/06/26 5:40:27 AM 26 0.0 4.0 40 40 73.8 73.2 29.891 7.41 0.0 0 0.00 0.00 0.00 0.00
09/06/26 5:41:34 AM 28 0.0 4.0 40 40 73.9 73.2 29.890 7.41 0.0 0 0.00 0.00 0.00 0.00
09/06/26 5:42:26 AM 32 0.0 4.0 40 40 73.8 73.1 29.889 7.41 0.0 0 0.00 0.00 0.00 0.00
09/06/26 5:43:17 AM 28 0.0 4.0 40 41 73.8 73.2 29.890 7.41 0.0 0 0.00 0.00 0.00 0.00
09/06/26 5:44:27 AM 29 0.0 4.0 40 41 73.8 73.2 29.892 7.41 0.0 0 0.00 0.00 0.00 0.00
09/06/26 5:45:43 AM 32 0.0 4.0 40 41 73.8 73.2 29.893 7.41 0.0 0 0.00 0.00 0.00 0.00
09/06/26 5:46:35 AM 31 0.0 4.0 40 41 73.8 73.2 29.893 7.41 0.0 0 0.00 0.00 0.00 0.00
09/06/26 5:47:24 AM 34 0.0 4.0 40 41 73.9 73.2 29.894 7.41 0.0 0 0.00 0.00 0.00 0.00
09/06/26 5:48:34 AM 30 0.0 4.0 40 41 73.8 73.1 29.898 7.41 0.0 0 0.00 0.00 0.00 0.00
09/06/26 5:49:25 AM 28 0.0 4.0 40 41 73.8 73.2 29.899 7.41 0.0 0 0.00 0.00 0.00 0.00
09/06/26 5:50:20 AM 31 0.0 4.0 40 42 73.8 73.2 29.900 7.41 0.0 0 0.00 0.00 0.00 0.00
09/06/26 5:51:30 AM 29 0.0 4.0 40 41 73.8 73.2 29.899 7.41 0.0 0 0.00 0.00 0.00 0.00
09/06/26 5:52:19 AM 28 0.0 4.0 40 41 73.8 73.2 29.897 7.41 0.0 0 0.00 0.00 0.00 0.00
09/06/26 5:53:32 AM 28 0.0 4.0 40 41 73.7 73.2 29.897 7.41 0.0 0 0.00 0.00 0.00 0.00
09/06/26 5:54:23 AM 32 0.0 4.0 40 42 73.7 73.2 29.900 7.41 0.0 0 0.00 0.00 0.00 0.00
09/06/26 5:55:36 AM 31 0.0 4.0 40 42 73.8 73.1 29.900 7.41 0.0 0 0.00 0.00 0.00 0.00
09/06/26 5:56:28 AM 30 0.0 4.0 40 41 73.8 73.2 29.900 7.41 0.0 0 0.00 0.00 0.00 0.00
09/06/26 5:57:20 AM 26 0.0 4.0 40 41 73.8 73.1 29.901 7.41 0.0 0 0.00 0.00 0.00 0.00
09/06/26 5:58:27 AM 30 0.0 4.0 40 41 73.8 73.1 29.901 7.41 0.0 0 0.00 0.00 0.00 0.00
09/06/26 5:59:18 AM 31 0.0 4.0 40 41 73.8 73.2 29.902 7.41 0.0 0 0.00 0.00 0.00 0.00
09/06/26 6:00:31 AM 28 0.0 4.0 40 41 73.8 73.1 29.903 7.41 0.0 0 0.00 0.00 0.00 0.00
09/06/26 6:01:20 AM 31 0.0 4.0 40 41 73.8 73.2 29.903 7.41 0.0 0 0.00 0.00 0.00 0.00
09/06/26 6:02:33 AM 32 2.0 4.0 40 40 73.8 73.2 29.903 7.41 0.0 0 0.00 0.00 0.00 0.00
09/06/26 6:03:22 AM 32 2.0 4.0 40 40 73.8 73.2 29.900 7.41 0.0 0 0.00 0.00 0.00 0.00
09/06/26 6:04:32 AM 32 2.0 4.0 40 40 73.8 73.2 29.900 7.41 0.0 0 0.00 0.00 0.00 0.00
09/06/26 6:05:23 AM 31 2.0 4.0 40 40 73.8 73.3 29.902 7.41 0.0 0 0.00 0.00 0.00 0.00
09/06/26 6:06:36 AM 31 2.0 4.0 40 39 73.8 73.3 29.900 7.41 0.0 0 0.00 0.00 0.00 0.00
09/06/26 6:07:28 AM 32 2.0 4.0 40 39 73.8 73.3 29.900 7.41 0.0 0 0.00 0.00 0.00 0.00
09/06/26 6:08:35 AM 28 1.0 4.0 41 39 73.8 73.4 29.904 7.41 0.0 0 0.00 0.00 0.00 0.00
09/06/26 6:09:27 AM 30 1.0 4.0 41 39 73.7 73.4 29.902 7.41 0.0 0 0.00 0.00 0.00 0.00
09/06/26 6:10:19 AM 32 1.0 4.0 41 39 73.7 73.4 29.905 7.41 0.0 0 0.00 0.00 0.00 0.00
09/06/26 6:11:29 AM 31 1.0 4.0 41 40 73.8 73.4 29.905 7.41 0.0 0 0.00 0.00 0.00 0.00
09/06/26 6:12:23 AM 28 2.0 4.0 41 41 73.7 73.5 29.906 7.41 0.0 0 0.00 0.00 0.00 0.00
09/06/26 6:13:30 AM 32 2.0 4.0 41 40 73.8 73.5 29.906 7.41 0.0 0 0.00 0.00 0.00 0.00
09/06/26 6:14:22 AM 32 1.0 4.0 41 40 73.8 73.5 29.907 7.41 0.0 0 0.00 0.00 0.00 0.00
09/06/26 6:15:17 AM 29 2.0 4.0 41 41 73.7 73.5 29.908 7.41 0.0 0 0.00 0.00 0.00 0.00
09/06/26 6:16:30 AM 32 2.0 4.0 41 41 73.7 73.5 29.910 7.41 0.0 0 0.00 0.00 0.00 0.00
09/06/26 6:17:22 AM 31 2.0 4.0 41 41 73.8 73.6 29.912 7.41 0.0 0 0.00 0.00 0.00 0.00
09/06/26 6:18:32 AM 28 1.0 4.0 41 41 73.8 73.6 29.912 7.41 0.0 0 0.00 0.00 0.00 0.00
09/06/26 6:19:21 AM 28 1.0 4.0 41 41 73.7 73.6 29.918 7.41 0.0 0 0.00 0.00 0.00 0.00
09/06/26 6:20:30 AM 30 0.0 4.0 41 42 73.8 73.6 29.919 7.41 0.0 0 0.00 0.00 0.00 0.00
09/06/26 6:21:22 AM 31 0.0 4.0 41 42 73.8 73.7 29.919 7.41 0.0 0 0.00 0.00 0.00 0.00
09/06/26 6:22:35 AM 32 0.0 4.0 41 42 73.8 73.7 29.921 7.41 0.0 0 0.00 0.00 0.00 0.00
09/06/26 6:23:27 AM 31 0.0 4.0 41 42 73.8 73.7 29.923 7.41 0.0 0 0.00 0.00 0.00 0.00
09/06/26 6:24:34 AM 30 2.0 4.0 41 44 73.7 73.7 29.925 7.41 0.0 0 0.00 0.00 0.00 0.00
09/06/26 6:25:26 AM 32 3.0 4.0 41 44 73.8 73.7 29.925 7.41 0.0 0 0.00 0.00 0.00 0.00
09/06/26 6:26:17 AM 32 3.0 4.0 41 43 73.7 73.7 29.927 7.41 0.0 0 0.00 0.00 0.00 0.00
09/06/26 6:27:30 AM 31 3.0 4.0 41 43 73.7 73.7 29.929 7.41 0.0 0 0.00 0.00 0.00 0.00
09/06/26 6:28:25 AM 32 2.0 4.0 41 43 73.7 73.7 29.932 7.41 0.0 0 0.00 0.00 0.00 0.00
09/06/26 6:29:17 AM 32 2.0 4.0 41 44 73.7 73.7 29.931 7.41 0.0 0 0.00 0.00 0.00 0.00
09/06/26 6:30:27 AM 30 2.0 4.0 41 44 73.7 73.7 29.936 7.41 0.0 0 0.00 0.00 0.00 0.00
09/06/26 6:31:37 AM 31 3.0 4.0 41 45 73.7 73.7 29.934 7.41 0.0 0 0.00 0.00 0.00 0.00
09/06/26 6:32:25 AM 32 1.0 4.0 41 45 73.7 73.7 29.936 7.41 0.0 0 0.00 0.00 0.00 0.00
09/06/26 6:33:20 AM 31 1.0 4.0 41 44 73.7 73.6 29.934 7.41 0.0 0 0.00 0.00 0.00 0.00
09/06/26 6:34:30 AM 32 0.0 4.0 41 44 73.7 73.6 29.931 7.41 0.0 0 0.00 0.00 0.00 0.00
09/06/26 6:35:19 AM 30 0.0 4.0 41 44 73.7 73.6 29.933 7.41 0.0 0 0.00 0.00 0.00 0.00
09/06/26 6:36:32 AM 34 0.0 4.0 41 46 73.7 73.6 29.934 7.41 0.0 0 0.00 0.00 0.00 0.00
09/06/26 6:37:24 AM 32 0.0 4.0 41 48 73.7 73.6 29.935 7.41 0.0 0 0.00 0.00 0.00 0.00
09/06/26 6:38:33 AM 24 0.0 4.0 41 49 73.8 73.6 29.936 7.41 0.0 0 0.00 0.00 0.00 0.00
09/06/26 6:39:28 AM 29 0.0 4.0 41 50 73.7 73.6 29.937 7.41 0.0 0 0.00 0.00 0.00 0.00
09/06/26 6:40:35 AM 31 0.0 4.0 42 50 73.7 73.5 29.939 7.41 0.0 0 0.00 0.00 0.00 0.00
09/06/26 6:41:27 AM 34 0.0 4.0 42 50 73.7 73.5 29.937 7.42 0.0 0 0.01 0.00 0.00 0.00
09/06/26 6:42:19 AM 34 0.0 4.0 43 50 73.7 73.4 29.938 7.42 0.0 0 0.01 0.00 0.00 0.00
09/06/26 6:43:32 AM 28 0.0 4.0 44 50 73.8 73.4 29.938 7.42 0.0 0 0.01 0.00 0.00 0.00
09/06/26 6:44:23 AM 28 0.0 4.0 45 50 73.8 73.3 29.939 7.42 0.0 0 0.01 0.00 0.00 0.00
09/06/26 6:45:54 AM 32 0.0 4.0 46 50 73.7 73.3 29.939 7.42 0.0 0 0.01 0.00 0.00 0.00
09/06/26 6:46:22 AM 35 0.0 4.0 47 52 73.8 73.3 29.942 7.42 0.0 0 0.01 0.00 0.00 0.00
09/06/26 6:47:35 AM 32 0.0 4.0 47 53 73.7 73.2 29.942 7.42 0.0 0 0.01 0.00 0.00 0.00
09/06/26 6:48:30 AM 35 0.0 4.0 48 52 73.8 73.1 29.941 7.42 0.0 0 0.01 0.08 0.08 0.08
09/06/26 6:49:22 AM 32 4.0 4.0 49 52 73.7 73.0 29.942 7.43 0.0 0 0.02 0.08 0.08 0.08
09/06/26 6:50:34 AM 30 3.0 4.0 49 54 73.7 72.8 29.941 7.43 0.0 0 0.02 0.08 0.08 0.08
09/06/26 6:51:23 AM 30 4.0 5.0 49 54 73.7 72.5 29.940 7.43 0.0 0 0.02 0.08 0.08 0.08
09/06/26 6:52:33 AM 30 4.0 5.0 50 55 73.7 72.2 29.938 7.43 0.0 0 0.02 0.08 0.08 0.08
09/06/26 6:53:28 AM 32 3.0 5.0 50 56 73.6 71.9 29.938 7.43 0.0 0 0.02 0.08 0.08 0.08
09/06/26 6:54:20 AM 31 1.0 5.0 50 57 73.6 71.6 29.939 7.43 0.0 0 0.02 0.08 0.08 0.08
09/06/26 6:55:30 AM 26 0.0 5.0 50 58 73.5 71.4 29.940 7.43 0.0 5 0.02 0.08 0.08 0.08
09/06/26 6:56:24 AM 28 0.0 5.0 51 58 73.5 71.3 29.939 7.43 0.0 5 0.02 0.08 0.08 0.08
09/06/26 6:57:31 AM 30 0.0 5.0 51 58 73.5 71.2 29.944 7.43 0.0 7 0.02 0.07 0.08 0.08
09/06/26 6:58:23 AM 34 0.0 5.0 51 58 73.4 71.2 29.948 7.43 0.0 9 0.02 0.06 0.08 0.08
09/06/26 6:59:36 AM 28 4.0 5.0 51 58 73.4 71.1 29.947 7.43 0.0 9 0.02 0.05 0.08 0.08
09/06/26 7:00:28 AM 32 2.0 5.0 52 59 73.3 71.0 29.945 7.43 0.0 11 0.02 0.05 0.08 0.08
09/06/26 7:01:19 AM 30 2.0 5.0 53 61 73.3 70.8 29.947 7.43 0.0 11 0.02 0.05 0.08 0.05
09/06/26 7:02:26 AM 29 0.0 5.0 53 61 73.3 70.7 29.948 7.43 0.0 9 0.02 0.04 0.08 0.05
09/06/26 7:03:18 AM 28 0.0 5.0 53 61 73.2 70.6 29.947 7.43 0.0 9 0.02 0.04 0.08 0.05
09/06/26 7:04:31 AM 28 1.0 5.0 53 62 73.2 70.5 29.949 7.43 0.0 9 0.02 0.04 0.08 0.05
09/06/26 7:05:23 AM 30 2.0 5.0 53 64 73.2 70.4 29.951 7.43 0.0 9 0.02 0.04 0.08 0.05
09/06/26 7:06:36 AM 26 0.0 5.0 53 64 73.1 70.3 29.950 7.43 0.0 9 0.02 0.00 0.08 0.05
09/06/26 7:07:21 AM 28 1.0 5.0 53 65 73.1 70.2 29.954 7.43 0.0 9 0.02 0.00 0.08 0.05
09/06/26 7:08:34 AM 30 1.0 5.0 53 65 73.0 70.1 29.954 7.43 0.0 11 0.02 0.00 0.08 0.05
09/06/26 7:09:23 AM 31 0.0 5.0 54 65 73.0 70.0 29.957 7.43 0.0 11 0.02 0.00 0.08 0.05
09/06/26 7:10:18 AM 34 1.0 5.0 54 66 73.0 69.9 29.955 7.43 0.0 11 0.02 0.00 0.08 0.05
09/06/26 7:11:28 AM 30 2.0 5.0 54 66 73.0 69.7 29.955 7.43 0.0 11 0.02 0.00 0.08 0.05
09/06/26 7:12:20 AM 26 3.0 5.0 55 66 72.9 69.6 29.957 7.43 0.0 11 0.02 0.00 0.08 0.05
09/06/26 7:13:27 AM 31 4.0 5.0 56 66 72.9 69.4 29.960 7.43 0.0 11 0.02 0.00 0.08 0.05
09/06/26 7:14:21 AM 29 3.0 5.0 56 66 72.9 69.2 29.958 7.43 0.0 11 0.02 0.00 0.08 0.05
09/06/26 7:15:34 AM 34 4.0 5.0 57 66 72.9 68.9 29.962 7.43 0.0 11 0.02 0.00 0.08 0.05
09/06/26 7:16:23 AM 32 3.0 5.0 57 66 72.8 68.8 29.962 7.44 0.0 11 0.03 0.00 0.08 0.05
09/06/26 7:17:36 AM 30 4.0 5.0 57 68 72.8 68.6 29.965 7.44 0.0 11 0.03 0.00 0.08 0.05
09/06/26 7:18:22 AM 31 5.0 5.0 57 68 72.8 68.5 29.965 7.44 0.0 12 0.03 0.00 0.08 0.05
09/06/26 7:19:35 AM 34 5.0 8.0 57 68 72.8 68.3 29.962 7.44 0.0 12 0.03 0.00 0.08 0.05
09/06/26 7:20:27 AM 31 5.0 8.0 57 67 72.8 68.2 29.965 7.44 0.0 14 0.03 0.00 0.08 0.05
09/06/26 7:21:18 AM 32 4.0 8.0 57 67 72.7 68.0 29.964 7.44 0.0 14 0.03 0.00 0.08 0.05
09/06/26 7:22:28 AM 24 5.0 8.0 57 68 72.7 67.9 29.962 7.44 0.0 14 0.03 0.00 0.08 0.05
09/06/26 7:23:17 AM 26 6.0 8.0 57 68 72.7 67.8 29.962 7.44 0.0 14 0.03 0.00 0.08 0.05
09/06/26 7:24:30 AM 31 4.0 8.0 57 70 72.6 67.7 29.964 7.44 0.0 16 0.03 0.00 0.08 0.05
09/06/26 7:25:22 AM 30 3.0 8.0 57 70 72.6 67.7 29.968 7.44 0.0 14 0.03 0.00 0.08 0.05
09/06/26 7:26:35 AM 28 2.0 8.0 57 69 72.6 67.6 29.967 7.44 0.0 14 0.03 0.00 0.08 0.05
09/06/26 7:27:26 AM 26 1.0 8.0 57 70 72.6 67.6 29.967 7.44 0.0 14 0.03 0.00 0.08 0.05
09/06/26 7:28:18 AM 28 1.0 8.0 58 70 72.5 67.5 29.969 7.44 0.0 12 0.03 0.00 0.08 0.05
09/06/26 7:29:25 AM 31 2.0 8.0 58 71 72.5 67.5 29.969 7.44 0.0 11 0.03 0.00 0.08 0.05
09/06/26 7:30:38 AM 32 1.0 8.0 58 71 72.5 67.5 29.969 7.44 0.0 11 0.03 0.00 0.08 0.05
09/06/26 7:31:27 AM 32 0.0 8.0 58 71 72.5 67.5 29.970 7.44 0.0 9 0.03 0.00 0.08 0.05
09/06/26 7:32:22 AM 26 0.0 8.0 58 72 72.5 67.4 29.969 7.44 0.0 9 0.03 0.00 0.08 0.05
09/06/26 7:33:32 AM 30 1.0 8.0 58 72 72.4 67.4 29.971 7.44 0.0 7 0.03 0.00 0.08 0.05
09/06/26 7:34:20 AM 26 3.0 8.0 58 72 72.4 67.4 29.969 7.44 0.0 7 0.03 0.00 0.08 0.05
09/06/26 7:35:30 AM 32 2.0 8.0 58 72 72.3 67.3 29.968 7.44 0.0 7 0.03 0.00 0.08 0.05
09/06/26 7:36:25 AM 32 1.0 8.0 58 72 72.3 67.2 29.968 7.44 0.0 7 0.03 0.00 0.08 0.05
09/06/26 7:37:17 AM 35 2.0 8.0 58 72 72.4 67.2 29.965 7.44 0.0 7 0.03 0.00 0.08 0.05
09/06/26 7:38:30 AM 29 3.0 8.0 58 71 72.3 67.1 29.965 7.44 0.0 7 0.03 0.00 0.08 0.05
09/06/26 7:39:16 AM 35 2.0 8.0 58 71 72.3 67.0 29.964 7.44 0.0 7 0.03 0.00 0.08 0.05
09/06/26 7:40:29 AM 36 2.0 8.0 58 70 72.2 66.9 29.964 7.45 0.0 9 0.04 0.00 0.08 0.05
09/06/26 7:41:20 AM 35 3.0 8.0 58 70 72.2 66.8 29.965 7.45 0.0 7 0.04 0.41 0.41 0.41
09/06/26 7:42:33 AM 34 3.0 8.0 58 70 72.2 66.7 29.968 7.47 0.0 9 0.06 0.75 0.95 0.95
09/06/26 7:43:25 AM 34 5.0 9.0 58 70 72.1 66.6 29.970 7.48 0.0 9 0.07 0.51 0.95 0.95
09/06/26 7:44:17 AM 34 4.0 9.0 58 70 72.1 66.5 29.969 7.48 0.0 9 0.07 0.46 0.95 0.95
09/06/26 7:45:24 AM 32 4.0 9.0 58 70 72.1 66.4 29.969 7.48 0.0 11 0.07 0.25 0.95 0.95
09/06/26 7:46:34 AM 38 3.0 9.0 58 71 72.0 66.2 29.964 7.49 0.0 11 0.08 0.23 0.95 0.95
09/06/26 7:47:29 AM 28 3.0 9.0 58 71 72.0 66.2 29.964 7.49 0.0 11 0.08 0.23 0.95 0.95
09/06/26 7:48:18 AM 38 3.0 9.0 58 71 72.0 66.1 29.963 7.49 0.0 14 0.08 0.23 0.95 0.95
09/06/26 7:49:30 AM 35 2.0 9.0 58 72 72.0 66.0 29.962 7.49 0.0 18 0.08 0.15 0.95 0.95
09/06/26 7:50:19 AM 35 2.0 9.0 58 72 71.9 65.9 29.961 7.49 0.0 19 0.08 0.13 0.95 0.95
09/06/26 7:51:29 AM 35 2.0 9.0 58 72 71.9 65.8 29.960 7.49 0.0 21 0.08 0.10 0.95 0.95
09/06/26 7:52:24 AM 34 2.0 9.0 59 73 71.9 65.8 29.961 7.50 0.0 21 0.09 0.10 0.95 0.95
09/06/26 7:53:34 AM 35 0.0 9.0 59 73 71.8 65.8 29.959 7.50 0.0 21 0.09 0.10 0.95 0.95
09/06/26 7:54:26 AM 38 0.0 9.0 60 74 71.8 65.8 29.956 7.50 0.0 21 0.09 0.10 0.95 0.95
09/06/26 7:55:33 AM 37 0.0 9.0 60 74 71.8 65.8 29.957 7.50 0.0 21 0.09 0.10 0.95 0.95
09/06/26 7:56:25 AM 36 0.0 9.0 60 74 71.7 65.8 29.954 7.50 0.0 19 0.09 0.10 0.95 0.95
09/06/26 7:57:34 AM 35 0.0 9.0 60 74 71.7 65.8 29.954 7.50 0.0 18 0.09 0.10 0.95 0.95
09/06/26 7:58:26 AM 36 0.0 9.0 60 75 71.7 65.9 29.956 7.50 0.0 16 0.09 0.09 0.95 0.95
09/06/26 7:59:18 AM 38 0.0 9.0 60 75 71.6 65.9 29.957 7.50 0.0 16 0.09 0.08 0.95 0.95
09/06/26 8:00:28 AM 38 0.0 9.0 61 75 71.6 66.0 29.959 7.50 0.0 16 0.09 0.07 0.95 0.95
09/06/26 8:01:20 AM 34 0.0 9.0 62 76 71.6 66.0 29.960 7.50 0.0 16 0.09 0.06 0.95 0.06
09/06/26 8:02:30 AM 38 5.0 9.0 62 76 71.6 66.0 29.958 7.50 0.0 18 0.09 0.06 0.95 0.06
09/06/26 8:03:22 AM 38 4.0 9.0 62 76 71.6 66.1 29.956 7.50 0.0 19 0.09 0.05 0.95 0.06
09/06/26 8:04:35 AM 32 2.0 9.0 62 77 71.5 66.1 29.952 7.51 0.0 23 0.10 0.05 0.95 0.06
09/06/26 8:05:26 AM 36 2.0 9.0 63 77 71.5 66.0 29.951 7.51 0.0 25 0.10 0.05 0.95 0.06
09/06/26 8:06:33 AM 31 0.0 9.0 63 77 71.5 66.0 29.951 7.51 0.0 28 0.10 0.05 0.95 0.06
09/06/26 8:07:25 AM 36 0.0 9.0 63 77 71.5 66.0 29.952 7.51 0.0 33 0.10 0.05 0.95 0.06
09/06/26 8:08:35 AM 37 0.0 9.0 64 77 71.5 66.1 29.950 7.52 0.0 44 0.11 0.15 0.95 0.15
09/06/26 8:09:27 AM 35 0.0 9.0 64 78 71.4 66.0 29.950 7.52 0.0 49 0.11 0.15 0.95 0.15
09/06/26 8:10:19 AM 36 3.0 9.0 64 78 71.4 66.0 29.953 7.52 0.0 49 0.11 0.15 0.95 0.15
09/06/26 8:11:29 AM 35 3.0 9.0 65 78 71.4 66.0 29.953 7.52 0.0 54 0.11 0.15 0.95 0.15
09/06/26 8:12:21 AM 35 3.0 9.0 65 78 71.3 65.9 29.953 7.52 0.0 53 0.11 0.15 0.95 0.15
09/06/26 8:13:31 AM 35 3.0 9.0 65 79 71.4 65.8 29.951 7.53 0.0 53 0.12 0.14 0.95 0.15
09/06/26 8:14:25 AM 36 3.0 9.0 65 79 71.4 65.8 29.951 7.53 0.0 47 0.12 0.14 0.95 0.15
09/06/26 8:15:17 AM 39 3.0 9.0 66 79 71.3 65.8 29.954 7.53 0.0 46 0.12 0.14 0.95 0.15
09/06/26 8:16:24 AM 36 2.0 9.0 66 79 71.3 65.7 29.953 7.53 0.0 44 0.12 0.14 0.95 0.15
09/06/26 8:17:16 AM 36 1.0 9.0 66 80 71.3 65.7 29.953 7.53 0.0 42 0.12 0.12 0.95 0.15
09/06/26 8:18:29 AM 35 0.0 9.0 66 80 71.3 65.7 29.951 7.53 0.0 42 0.12 0.10 0.95 0.15
09/06/26 8:19:21 AM 36 0.0 9.0 66 80 71.3 65.7 29.949 7.53 0.0 42 0.12 0.09 0.95 0.15
09/06/26 8:20:31 AM 36 3.0 9.0 66 81 71.3 65.8 29.950 7.53 0.0 42 0.12 0.07 0.95 0.15
09/06/26 8:21:25 AM 35 4.0 9.0 66 81 71.3 65.8 29.949 7.53 0.0 44 0.12 0.07 0.95 0.15
09/06/26 8:22:32 AM 32 4.0 9.0 67 82 71.3 65.8 29.951 7.53 0.0 51 0.12 0.06 0.95 0.15
09/06/26 8:23:24 AM 36 5.0 9.0 67 82 71.2 65.8 29.949 7.53 0.0 51 0.12 0.06 0.95 0.15
09/06/26 8:24:16 AM 32 4.0 9.0 67 82 71.2 65.8 29.947 7.53 0.0 58 0.12 0.05 0.95 0.15
09/06/26 8:25:29 AM 35 2.0 9.0 67 82 71.2 65.8 29.949 7.53 0.0 70 0.12 0.05 0.95 0.15
09/06/26 8:26:18 AM 35 2.0 9.0 67 83 71.2 65.8 29.949 7.53 0.0 70 0.12 0.04 0.95 0.15
09/06/26 8:27:28 AM 36 0.0 9.0 68 83 71.1 65.9 29.947 7.54 0.0 77 0.13 0.04 0.95 0.15
09/06/26 8:28:20 AM 36 0.0 9.0 68 83 71.1 65.9 29.946 7.54 0.0 77 0.13 0.04 0.95 0.15
09/06/26 8:29:33 AM 35 0.0 9.0 68 83 71.1 66.0 29.948 7.54 0.0 77 0.13 0.04 0.95 0.15
09/06/26 8:30:28 AM 36 0.0 9.0 69 83 71.1 66.0 29.948 7.54 0.0 72 0.13 0.04 0.95 0.15
09/06/26 8:31:17 AM 38 0.0 9.0 69 83 71.0 66.0 29.948 7.54 0.0 70 0.13 0.04 0.95 0.15
09/06/26 8:32:27 AM 31 0.0 9.0 69 83 71.1 66.0 29.947 7.54 0.0 69 0.13 0.04 0.95 0.15
09/06/26 8:33:15 AM 32 0.0 9.0 69 83 71.1 66.1 29.944 7.54 0.0 69 0.13 0.04 0.95 0.15
09/06/26 8:34:28 AM 36 0.0 9.0 69 84 71.1 66.1 29.943 7.54 0.0 69 0.13 0.04 0.95 0.15
09/06/26 8:35:20 AM 36 0.0 9.0 69 84 71.1 66.1 29.944 7.54 0.0 70 0.13 0.04 0.95 0.15
09/06/26 8:36:33 AM 35 0.0 9.0 69 84 71.1 66.2 29.943 7.54 0.0 70 0.13 0.04 0.95 0.15
09/06/26 8:37:25 AM 35 0.0 9.0 69 84 71.1 66.2 29.944 7.54 0.0 72 0.13 0.04 0.95 0.15
09/06/26 8:38:32 AM 36 0.0 9.0 70 84 71.1 66.3 29.944 7.54 0.0 76 0.13 0.04 0.95 0.15
09/06/26 8:39:24 AM 36 0.0 9.0 70 84 71.1 66.3 29.945 7.54 0.0 76 0.13 0.04 0.95 0.15
09/06/26 8:40:16 AM 36 0.0 9.0 70 84 71.0 66.3 29.943 7.54 0.0 79 0.13 0.04 0.95 0.15
09/06/26 8:41:29 AM 37 0.0 9.0 70 84 71.1 66.3 29.944 7.54 0.0 77 0.13 0.04 0.95 0.15
09/06/26 8:42:21 AM 36 0.0 9.0 71 84 71.1 66.4 29.944 7.54 0.0 74 0.13 0.04 0.95 0.15
09/06/26 8:43:27 AM 35 0.0 9.0 71 84 71.1 66.4 29.940 7.54 0.0 69 0.13 0.04 0.95 0.15
09/06/26 8:44:19 AM 34 0.0 9.0 71 85 71.1 66.5 29.942 7.54 0.0 62 0.13 0.00 0.95 0.15
09/06/26 8:45:53 AM 34 0.0 9.0 71 85 71.1 66.6 29.944 7.54 0.0 56 0.13 0.00 0.95 0.15
09/06/26 8:46:24 AM 37 0.0 9.0 71 85 71.1 66.6 29.944 7.54 0.0 54 0.13 0.00 0.95 0.15
09/06/26 8:47:34 AM 34 0.0 9.0 71 85 71.1 66.7 29.945 7.54 0.0 53 0.13 0.00 0.95 0.15
09/06/26 8:48:29 AM 36 0.0 9.0 71 85 71.2 66.7 29.941 7.54 0.0 53 0.13 0.00 0.95 0.15
09/06/26 8:49:36 AM 31 0.0 9.0 71 85 71.1 66.8 29.943 7.54 0.0 53 0.13 0.00 0.95 0.15
09/06/26 8:50:28 AM 35 0.0 9.0 71 85 71.2 66.8 29.940 7.54 0.0 53 0.13 0.00 0.95 0.15
09/06/26 8:51:20 AM 35 0.0 9.0 71 86 71.2 66.9 29.937 7.54 0.0 54 0.13 0.00 0.95 0.15
09/06/26 8:52:33 AM 35 0.0 9.0 71 86 71.2 67.0 29.939 7.54 0.0 62 0.13 0.00 0.95 0.15
09/06/26 8:53:25 AM 35 0.0 9.0 71 86 71.2 67.1 29.941 7.54 0.0 62 0.13 0.00 0.95 0.15
09/06/26 8:54:35 AM 38 3.0 9.0 71 86 71.2 67.2 29.938 7.54 0.0 77 0.13 0.00 0.95 0.15
09/06/26 8:55:26 AM 36 2.0 9.0 71 86 71.2 67.2 29.938 7.54 0.0 84 0.13 0.00 0.95 0.15
09/06/26 8:56:15 AM 32 1.0 9.0 71 86 71.2 67.3 29.936 7.54 0.0 91 0.13 0.00 0.95 0.15
09/06/26 8:57:28 AM 34 1.0 9.0 72 86 71.2 67.3 29.938 7.54 0.5 91 0.13 0.00 0.95 0.15
09/06/26 8:58:23 AM 34 1.0 9.0 72 86 71.2 67.3 29.937 7.54 0.5 91 0.13 0.00 0.95 0.15
09/06/26 8:59:30 AM 34 1.0 9.0 72 86 71.2 67.3 29.937 7.54 0.5 91 0.13 0.00 0.95 0.15
09/06/26 9:00:22 AM 34 1.0 9.0 72 86 71.3 67.3 29.935 7.54 0.5 91 0.13 0.00 0.95 0.15
09/06/26 9:01:35 AM 34 1.0 9.0 72 86 71.3 67.3 29.936 7.54 0.5 91 0.13 0.00 0.95 0.00
09/06/26 9:03:00 AM 34 1.0 9.0 72 86 71.3 67.3 29.934 7.54 0.5 91 0.13 0.00 0.95 0.00
09/06/26 9:03:33 AM 34 1.0 9.0 72 86 71.5 67.4 29.934 7.54 0.5 91 0.13 0.00 0.95 0.00
09/06/26 9:04:25 AM 36 1.0 9.0 72 86 71.5 67.4 29.934 7.55 0.5 97 0.14 0.00 0.95 0.00
09/06/26 9:05:32 AM 35 1.0 9.0 72 86 71.5 67.4 29.934 7.55 0.5 100 0.14 0.00 0.95 0.00
09/06/26 9:06:24 AM 36 2.0 9.0 72 86 71.5 67.5 29.936 7.55 0.6 104 0.14 0.00 0.95 0.00
09/06/26 9:07:34 AM 36 1.0 9.0 72 86 71.5 67.4 29.935 7.55 0.6 114 0.14 0.00 0.95 0.00
09/06/26 9:08:26 AM 34 1.0 9.0 72 86 71.5 67.5 29.936 7.55 0.6 114 0.14 0.00 0.95 0.00
09/06/26 9:09:18 AM 35 1.0 9.0 72 86 71.4 67.5 29.939 7.55 0.7 121 0.14 0.00 0.95 0.00
09/06/26 9:10:31 AM 34 1.0 9.0 72 86 71.5 67.5 29.937 7.55 0.7 135 0.14 0.00 0.95 0.00
09/06/26 9:11:20 AM 35 0.0 9.0 73 86 71.5 67.5 29.941 7.55 0.8 141 0.14 0.00 0.95 0.00
09/06/26 9:12:30 AM 34 0.0 9.0 73 86 71.5 67.5 29.942 7.55 0.8 146 0.14 0.00 0.95 0.00
09/06/26 9:13:22 AM 36 3.0 9.0 73 86 71.5 67.5 29.944 7.55 0.8 146 0.14 0.00 0.95 0.00
09/06/26 9:14:34 AM 34 3.0 9.0 73 86 71.4 67.5 29.943 7.55 0.8 144 0.14 0.00 0.95 0.00
09/06/26 9:15:26 AM 32 4.0 9.0 73 86 71.4 67.4 29.945 7.55 0.8 141 0.14 0.00 0.95 0.00
09/06/26 9:16:33 AM 30 3.0 9.0 73 84 71.4 67.4 29.947 7.55 0.8 137 0.14 0.00 0.95 0.00
09/06/26 9:17:25 AM 31 3.0 9.0 73 84 71.5 67.4 29.950 7.55 0.8 134 0.14 0.00 0.95 0.00
09/06/26 9:18:17 AM 29 2.0 9.0 73 84 71.5 67.4 29.951 7.55 0.7 134 0.14 0.00 0.95 0.00
09/06/26 9:19:30 AM 29 2.0 9.0 73 84 71.5 67.3 29.954 7.55 0.7 127 0.14 0.00 0.95 0.00
09/06/26 9:20:22 AM 29 2.0 9.0 73 84 71.5 67.3 29.956 7.55 0.7 127 0.14 0.00 0.95 0.00
09/06/26 9:21:29 AM 31 0.0 9.0 73 83 71.5 67.4 29.961 7.55 0.7 120 0.14 0.00 0.95 0.00
09/06/26 9:22:21 AM 28 1.0 9.0 73 83 71.5 67.3 29.962 7.55 0.7 116 0.14 0.00 0.95 0.00
09/06/26 9:23:34 AM 28 0.0 9.0 73 83 71.5 67.3 29.962 7.55 0.7 113 0.14 0.00 0.95 0.00
09/06/26 9:24:26 AM 29 0.0 9.0 73 83 71.5 67.3 29.961 7.55 0.6 105 0.14 0.00 0.95 0.00
09/06/26 9:25:17 AM 26 1.0 9.0 73 83 71.4 67.3 29.964 7.55 0.6 105 0.14 0.00 0.95 0.00
09/06/26 9:26:27 AM 29 2.0 9.0 73 83 71.5 67.3 29.965 7.55 0.6 102 0.14 0.00 0.95 0.00
09/06/26 9:27:16 AM 31 1.0 9.0 73 83 71.4 67.3 29.966 7.55 0.6 104 0.14 0.00 0.95 0.00
09/06/26 9:28:29 AM 30 2.0 9.0 73 83 71.5 67.2 29.966 7.55 0.6 104 0.14 0.00 0.95 0.00
09/06/26 9:29:21 AM 27 0.0 9.0 73 83 71.4 67.1 29.968 7.55 0.6 105 0.14 0.00 0.95 0.00
09/06/26 9:30:34 AM 32 0.0 9.0 73 83 71.4 67.2 29.969 7.55 0.7 107 0.14 0.00 0.95 0.00
09/06/26 9:31:26 AM 30 0.0 9.0 73 83 71.4 67.2 29.970 7.55 0.7 107 0.14 0.00 0.95 0.00
09/06/26 9:32:33 AM 32 0.0 9.0 73 83 71.4 67.2 29.967 7.55 0.7 105 0.14 0.00 0.95 0.00
09/06/26 9:33:25 AM 31 0.0 9.0 73 83 71.4 67.2 29.968 7.55 0.6 105 0.14 0.00 0.95 0.00
09/06/26 9:34:17 AM 31 0.0 9.0 73 83 71.4 67.1 29.964 7.55 0.6 104 0.14 0.00 0.95 0.00
09/06/26 9:35:30 AM 28 0.0 9.0 73 83 71.4 67.1 29.966 7.55 0.7 107 0.14 0.00 0.95 0.00
09/06/26 9:36:22 AM 23 0.0 9.0 73 83 71.4 67.1 29.969 7.55 0.7 107 0.14 0.00 0.95 0.00
09/06/26 9:37:32 AM 31 0.0 9.0 73 83 71.4 67.1 29.966 7.55 0.8 128 0.14 0.00 0.95 0.00
09/06/26 9:38:24 AM 31 0.0 9.0 73 83 71.4 67.1 29.965 7.55 0.8 128 0.14 0.00 0.95 0.00
09/06/26 9:39:34 AM 30 1.0 9.0 73 83 71.4 67.2 29.967 7.55 0.9 144 0.14 0.00 0.95 0.00
09/06/26 9:40:29 AM 32 2.0 9.0 73 83 71.4 67.2 29.967 7.55 0.9 146 0.14 0.00 0.95 0.00
09/06/26 9:41:20 AM 31 2.0 9.0 73 83 71.4 67.2 29.968 7.55 0.9 146 0.14 0.00 0.95 0.00
09/06/26 9:42:33 AM 28 2.0 9.0 73 84 71.5 67.3 29.965 7.55 0.9 146 0.14 0.00 0.95 0.00
09/06/26 9:43:19 AM 32 3.0 9.0 73 84 71.4 67.4 29.966 7.55 0.9 137 0.14 0.00 0.95 0.00
09/06/26 9:44:32 AM 31 3.0 9.0 73 84 71.5 67.5 29.966 7.55 0.9 134 0.14 0.00 0.95 0.00
09/06/26 9:45:27 AM 32 3.0 9.0 73 84 71.5 67.6 29.967 7.55 0.9 132 0.14 0.00 0.95 0.00
09/06/26 9:46:16 AM 31 2.0 9.0 73 84 71.5 67.7 29.965 7.55 0.8 128 0.14 0.00 0.95 0.00
09/06/26 9:47:29 AM 29 2.0 9.0 73 84 71.5 67.8 29.966 7.55 0.8 123 0.14 0.00 0.95 0.00
09/06/26 9:48:18 AM 29 3.0 9.0 73 83 71.5 67.9 29.965 7.55 0.8 118 0.14 0.00 0.95 0.00
09/06/26 9:49:28 AM 31 2.0 9.0 73 83 71.5 67.9 29.966 7.55 0.8 116 0.14 0.00 0.95 0.00
09/06/26 9:50:23 AM 30 3.0 9.0 73 82 71.5 67.9 29.964 7.55 0.8 116 0.14 0.00 0.95 0.00
09/06/26 9:51:33 AM 30 3.0 9.0 73 82 71.6 67.9 29.964 7.55 0.8 116 0.14 0.00 0.95 0.00
09/06/26 9:52:25 AM 27 3.0 9.0 73 82 71.6 67.9 29.965 7.55 0.9 123 0.14 0.00 0.95 0.00
09/06/26 9:53:16 AM 30 5.0 9.0 73 82 71.6 67.9 29.962 7.55 0.9 130 0.14 0.00 0.95 0.00
09/06/26 9:54:27 AM 31 3.0 9.0 73 81 71.6 67.9 29.967 7.55 1.0 144 0.14 0.00 0.95 0.00
09/06/26 9:55:18 AM 31 1.0 9.0 73 81 71.6 67.8 29.966 7.55 1.0 144 0.14 0.00 0.95 0.00
09/06/26 9:56:31 AM 29 1.0 9.0 73 81 71.6 67.8 29.968 7.55 1.0 149 0.14 0.00 0.95 0.00
09/06/26 9:57:23 AM 28 2.0 9.0 73 81 71.6 67.8 29.971 7.55 1.0 160 0.14 0.00 0.95 0.00
09/06/26 9:58:33 AM 31 2.0 9.0 73 80 71.6 67.7 29.968 7.55 1.1 162 0.14 0.00 0.95 0.00
09/06/26 9:59:22 AM 30 2.0 9.0 73 81 71.7 67.8 29.968 7.55 1.1 160 0.14 0.00 0.95 0.00
09/06/26 10:00:35 AM 30 2.0 9.0 73 80 71.7 67.8 29.970 7.55 1.0 160 0.14 0.00 0.95 0.00
09/06/26 10:01:27 AM 31 3.0 9.0 73 80 71.7 67.7 29.970 7.55 1.0 160 0.14 0.00 0.95 0.00
09/06/26 10:02:19 AM 31 2.0 9.0 73 80 71.7 67.8 29.972 7.55 1.0 160 0.14 0.00 0.95 0.00
09/06/26 10:03:32 AM 28 1.0 9.0 73 80 71.7 67.7 29.972 7.55 1.0 144 0.14 0.00 0.95 0.00
09/06/26 10:04:18 AM 28 3.0 9.0 73 80 71.7 67.8 29.971 7.56 1.0 141 0.15 0.00 0.95 0.00
09/06/26 10:05:31 AM 28 2.0 9.0 73 80 71.7 67.8 29.971 7.56 1.0 141 0.15 0.00 0.95 0.00
09/06/26 10:06:23 AM 31 1.0 9.0 73 80 71.7 67.8 29.972 7.56 1.0 139 0.15 0.00 0.95 0.00
09/06/26 10:07:36 AM 29 2.0 9.0 73 81 71.7 67.9 29.975 7.56 0.9 137 0.15 0.00 0.95 0.00
09/06/26 10:08:27 AM 23 1.0 9.0 73 80 71.8 67.8 29.972 7.56 0.9 137 0.15 0.00 0.95 0.00
09/06/26 10:09:19 AM 28 1.0 9.0 73 80 71.8 67.8 29.973 7.56 0.9 132 0.15 0.00 0.95 0.00
09/06/26 10:10:26 AM 30 0.0 9.0 73 80 71.7 67.9 29.974 7.56 0.9 132 0.15 0.00 0.95 0.00

University Police wind advisory reference

For campus closure information please call the campus Emergency Hotline at (909) 537-5999

© All rights reserved. Unauthorized duplication or distribution is prohibited

Never base important decisions on this or any weather information obtained from the Internet

California State University, San Bernardino
5500 University Parkway, San Bernardino, CA. 92407
Phone: (909) 537-5108, Email: Weather Webmaster
Last Updated: